Zurück zum Katalog

SIRIUS XM-9

AktivKommunikationGEO
NORAD 62259·PAYLOAD·🇺🇸 United States

Gestartet Dec 5, 2024 von Cape Canaveral Space Force Station

Loading…

TLE

AktuellSource: Space-Track

Epoche: Sep 14, 2026, 13:23 UTC

1 62259U 24234A   26257.55833082 -.00000213  00000-0  00000-0 0  9992
2 62259   0.0068 222.9105 0004326  93.6661 152.8047  1.00271992  6472

Verfolge SIRIUS XM-9 in Echtzeit mit AllMySat

Download on the App Store